Regional Weather Roundup
Issued by NWS

Home | Current Version | Previous Version | Graphics & Text | Print | Product List | Glossary Off
Versions: 1 2 3 4 5 6 7 8 9 10 11 12 13 14 15 16 17 18 19 20 21 22 23 24 25 26 27

000
ASUS45 KBOU 210310
RWRCO

WEATHER ROUNDUP FOR COLORADO
NATIONAL WEATHER SERVICE DENVER/BOULDER CO
800 PM MST MON NOV 20 2017

NOTE: "FAIR" INDICATES FEW OR NO CLOUDS BELOW 12000 FEET WITH NO
SIGNIFICANT WEATHER AND/OR OBSTRUCTIONS TO VISIBILITY.

COZ001>005-013-030-031-210400-
...NORTHWEST COLORADO...

CITY           SKY/WX    TMP DP  RH WIND       PRES   REMARKS
CRAIG          MOCLDY    32  26  78 W3        30.11R
HAYDEN         CLOUDY    35  21  56 CALM      30.11R
MEEKER         FAIR      43  11  27 SW10      30.12R
RABBIT EARS PA CLOUDY    28  10  47 W9G20     30.14F WCI  20
STEAMBOAT SPGS CLOUDY    32  23  69 CALM      30.08S
WALDEN         FAIR      39   3  22 SW20G25   30.05F
$$

COZ006>008-011-210400-
...WEST CENTRAL VALLEYS...

CITY           SKY/WX    TMP DP  RH WIND       PRES   REMARKS
GRAND JUNCTION FAIR      33  18  53 E6        30.18R WCI  28
MONTROSE       FAIR      32  23  69 CALM      30.19R
EAGLE          MOCLDY    33  22  63 E8        30.15R WCI  26
RIFLE          FAIR      34  25  69 SE8       30.17R WCI  27
DELTA          MOCLDY    38  21  50 W3        30.20R
NUCLA          FAIR      34  10  37 CALM      30.20R
$$

COZ017>023-064>068-210400-
...SOUTHWEST COLORADO...

CITY           SKY/WX    TMP DP  RH WIND       PRES   REMARKS
DURANGO        FAIR      33  14  45 N8        30.15S WCI  26
CORTEZ         FAIR      30  12  47 E7        30.17R WCI  23
PAGOSA SPRINGS FAIR      29  13  52 CALM      30.17F
TELLURIDE      CLOUDY    38   9  30 SE5       30.25R
WOLF CREEK PAS FAIR      28  10  47 W13G18    30.29F WCI  18
$$

COZ009-010-012-014-032>034-037-058>063-210400-
...CENTRAL COLORADO...

CITY           SKY/WX    TMP DP  RH WIND       PRES   REMARKS
ASPEN          CLOUDY    33  22  63 N7        30.15R WCI  27
BUENA VISTA    FAIR      45   4  18 W9        30.04S
COPPER MTN     CLOUDY    32   5  32 MISG      30.21R
BERTHOUD PASS  CLOUDY    21  10  63 NW20G31   30.19R WCI   6
COTTONWOOD PAS FAIR      45  -6  12 W44G68    30.03F
GUNNISON       FAIR      26  21  81 E3        30.19R
KREMMLING      CLOUDY    43   9  24 W3        30.10S
LEADVILLE      CLOUDY    33   6  32 NE12      30.14S WCI  24
MONARCH PASS   FAIR      27  -4  26 W38       30.29R WCI   9
SALIDA         FAIR      51  -5   9 W21G32    30.08S
SUNLIGHT       CLOUDY    28   1  31 SW15G30   30.24S WCI  17
WILKERSON PASS FAIR      30   1  29 W17G30    30.09R WCI  18
$$

COZ069>075-210400-
...SAN LUIS VALLEY/SANGRE DE CRISTO MOUNTAINS...

CITY           SKY/WX    TMP DP  RH WIND       PRES   REMARKS
ALAMOSA        FAIR      31   6  35 CALM      30.08S
DEL NORTE      FAIR      31   5  33 W6        30.09F WCI  25
LA VETA PASS   FAIR      34   3  27 S22G33      N/A  WCI  22
SAGUACHE       FAIR      39  -6  14 NW10      30.09S
$$

COZ035-036-038>040-210400-
...NORTHERN COLORADO FRONT RANGE...

CITY           SKY/WX    TMP DP  RH WIND       PRES   REMARKS
DENVER INTL AP MOCLDY    55  11  17 SW10      29.87R
DMNS CITY PARK   N/A     58   6  12 W18       29.89R
AURORA         MOCLDY    54  11  18 SW7       29.90R
FRONT RANGE AP MOCLDY    52  16  24 S12       29.88R
ERIE MUNI ARPT FAIR      45  16  30 CALM      29.90R
BOULDER MUN AP FAIR      54  12  19 SE3       29.85R
CENTENNIAL     MOCLDY    48  17  29 SE3       29.90R
BROOMFIELD     MOCLDY    59   9  13 W24G44    29.88
FORT COLLINS   FAIR      59  12  15 W15G32    29.86R
LONGMONT       FAIR      61  10  13 SW21G32   29.86R
$$

COZ041-046-047-076>085-087-088-210400-
...PIKES PEAK/PALMER DIVIDE AND SOUTHERN FOOTHILLS...

CITY           SKY/WX    TMP DP  RH WIND       PRES   REMARKS
COLO. SPRINGS  MOCLDY    60  11  14 NW22G33   29.89F
A. F. ACADEMY  FAIR      54   2  12 NW8       29.90S
SCHRIEVER AFB  FAIR      49  10  21 N8        29.91R
CHEYENNE MTN   MOCLDY    52  10  18 CALM      29.88R
ELLICOTT         N/A    N/A N/A N/A N9        29.90R
FALCON         FAIR      44  11  25 CALM      29.94R
FORT CARSON    FAIR      53  12  19 N7        29.87S
LIMON          FAIR      34  14  43 NW6       29.88R WCI  29
MONUMENT HILL  FAIR      37  18  44 S10       29.93S
CANON CITY     FAIR      50  14  23 CALM      29.90R
WALSENBURG     FAIR      54   1  12 W14G20    29.92F
TRINIDAD       FAIR      49  11  21 W7        29.90S
$$

COZ042>045-048>051-090-091-210400-
...NORTHEAST COLORADO...

CITY           SKY/WX    TMP DP  RH WIND       PRES   REMARKS
GREELEY ARPT   MOCLDY    55  14  19 W3        29.86R
AKRON          FAIR      49  15  25 N13       29.82R
BURLINGTON     FAIR      47  13  25 NE10      29.83R
WRAY           NOT AVBL
YUMA           FAIR      46  19  34 N7        29.80S
STERLING       CLOUDY    52  21  30 CALM      29.79R
HOLYOKE        FAIR      54  19  26 N12       29.79S
FORT MORGAN    FAIR      55  11  17 NW14      29.82R
$$

COZ086-089-092>099-210400-
...SOUTHEAST COLORADO...

CITY           SKY/WX    TMP DP  RH WIND       PRES   REMARKS
PUEBLO         FAIR      54  15  21 NW10      29.82S
LA JUNTA       FAIR      48  17  29 SW13      29.79F
LAMAR          FAIR      34   9  35 S5        29.79S WCI  30
SPRINGFIELD      N/A     33  15  47 W6        29.83R WCI  28
$$




USA.gov is the U.S. government's official web portal to all federal, state and local government web resources and services.